GW7237 Weather Reports


Display with metric or nautical units.
time (UTC)temp
F
wind
direction
speed
MPH
gust
MPH
rain 1hr
in
rain 24hr
in
rain mn
in
humidity
%
barometer
mb
20260504191502 66 284 1.0 9.0 0.00 0.00 0.00 26 1007.5
20260504190956 66 284 2.0 11.0 0.00 0.00 0.00 25 1007.4
20260504190450 67 289 2.0 11.0 0.00 0.00 0.00 26 1007.4
20260504185944 66 316 2.0 12.0 0.00 0.00 0.00 27 1007.4
20260504185438 65 295 1.0 12.0 0.00 0.00 0.00 25 1007.4
20260504184932 65 286 2.0 14.0 0.00 0.00 0.00 25 1007.4
20260504184428 66 281 3.0 14.0 0.00 0.00 0.00 24 1007.4
20260504183920 67 271 1.0 11.0 0.00 0.00 0.00 23 1007.5
20260504183414 67 283 0.0 7.0 0.00 0.00 0.00 22 1007.5
20260504182909 66 276 0.0 0.0 0.00 0.00 0.00 22 1007.5
20260504182409 66 276 0.0 0.0 0.00 0.00 0.00 22 1007.5
20260504181905 67 315 0.0 1.0 0.00 0.00 0.00 22 1007.6
20260504181406 68 315 0.0 1.0 0.00 0.00 0.00 21 1007.6
20260504180907 68 219 0.0 1.0 0.00 0.00 0.00 21 1007.7
20260504180407 69 256 0.0 2.0 0.00 0.00 0.00 23 1007.8
20260504175905 68 136 0.0 3.0 0.00 0.00 0.00 20 1007.8
20260504175403 68 286 1.0 9.0 0.00 0.00 0.00 20 1008.0
20260504174905 68 259 1.0 9.0 0.00 0.00 0.00 22 1008.1
20260504174403 68 312 1.0 3.0 0.00 0.00 0.00 22 1008.2
20260504173904 67 188 1.0 10.0 0.00 0.00 0.00 23 1008.2
20260504173402 67 290 1.0 10.0 0.00 0.00 0.00 22 1008.5
20260504172401 67 264 1.0 3.0 0.00 0.00 0.00 23 1008.5
20260504171402 67 205 1.0 5.0 0.00 0.00 0.00 21 1008.7
20260504170900 67 215 2.0 15.0 0.00 0.00 0.00 23 1008.9
20260504160242 66 274 2.0 14.0 0.00 0.00 0.00 26 1009.2
20260504150636 61 258 1.0 7.0 0.00 0.00 0.00 28 1009.8
20260504150131 61 290 1.0 9.0 0.00 0.00 0.00 28 1009.8
20260504141030 59 231 0.0 5.0 0.00 0.00 0.00 30 1009.5
20260504140524 59 219 0.0 4.0 0.00 0.00 0.00 29 1009.4
20260504130457 51 118 0.0 1.0 0.00 0.00 0.00 36 1009.3
20260504100316 44 246 0.0 0.0 0.00 0.00 0.00 48 1009.7
20260504081312 49 208 0.0 0.0 0.00 0.00 0.00 41 1010.5
20260504080812 49 208 0.0 0.0 0.00 0.00 0.00 42 1010.5
20260504080309 48 208 0.0 0.0 0.00 0.00 0.00 43 1010.5
20260504070221 52 209 0.0 0.0 0.00 0.00 0.00 39 1010.8
20260504060212 51 210 0.0 0.0 0.00 0.00 0.00 43 1011.1
20260504050637 55 198 0.0 1.0 0.00 0.00 0.00 36 1011.5
20260504050132 55 196 0.0 2.0 0.00 0.00 0.00 36 1011.5
20260504045625 55 210 0.0 2.0 0.00 0.00 0.00 36 1011.5
20260504045120 55 189 0.0 2.0 0.00 0.00 0.00 36 1011.5
20260504044614 55 185 0.0 2.0 0.00 0.00 0.00 36 1011.5
20260504044108 55 186 0.0 2.0 0.00 0.00 0.00 36 1011.6
20260504043602 55 142 0.0 0.0 0.00 0.00 0.00 36 1011.6
20260504043056 55 62 0.0 0.0 0.00 0.00 0.00 36 1011.7
20260504042550 54 62 0.0 0.0 0.00 0.00 0.00 36 1011.7
20260504041538 54 61 0.0 0.0 0.00 0.00 0.00 38 1011.9
20260504041033 54 61 0.0 0.0 0.00 0.00 0.00 39 1011.9
20260504040526 54 61 0.0 0.0 0.00 0.00 0.00 38 1011.9
20260504040021 54 61 0.0 0.0 0.00 0.00 0.00 38 1012.0
20260504035514 53 61 0.0 0.0 0.00 0.00 0.00 39 1012.0
20260504035008 53 61 0.0 0.0 0.00 0.00 0.00 40 1012.0
20260504034502 53 61 0.0 0.0 0.00 0.00 0.00 40 1012.0
20260504033451 53 61 0.0 1.0 0.00 0.00 0.00 42 1012.0
20260504032945 54 61 0.0 1.0 0.00 0.00 0.00 40 1011.9
20260504032438 54 61 0.0 1.0 0.00 0.00 0.00 37 1012.0
20260504031933 54 61 0.0 1.0 0.00 0.00 0.00 38 1011.9
20260504031426 54 62 0.0 1.0 0.00 0.00 0.00 38 1011.9
20260504030414 54 62 0.0 0.0 0.00 0.00 0.00 39 1011.9
20260504025402 56 62 0.0 0.0 0.00 0.00 0.00 38 1011.7
20260504024350 56 62 0.0 0.0 0.00 0.00 0.00 35 1011.7
20260504023844 57 62 0.0 0.0 0.00 0.00 0.00 35 1011.7
20260504023341 58 62 0.0 0.0 0.00 0.00 0.00 36 1011.7
20260504022838 58 62 0.0 0.0 0.00 0.00 0.00 33 1011.7
20260504022338 58 62 0.0 1.0 0.00 0.00 0.00 32 1011.6
20260504021336 59 62 0.0 1.0 0.00 0.00 0.00 31 1011.6
20260504020834 59 62 0.0 1.0 0.00 0.00 0.00 30 1011.5
20260504020334 60 62 0.0 1.0 0.00 0.00 0.00 30 1011.5
20260504015333 60 355 0.0 5.0 0.00 0.00 0.00 30 1011.4
20260504014832 61 19 0.0 5.0 0.00 0.00 0.00 29 1011.4
20260504014330 61 317 0.0 1.0 0.00 0.00 0.00 29 1011.4
20260504013833 62 300 0.0 1.0 0.00 0.00 0.00 28 1011.4
20260504013328 62 300 0.0 1.0 0.00 0.00 0.00 27 1011.2
20260504012827 62 300 0.0 5.0 0.00 0.00 0.00 26 1011.4
20260504012327 62 293 1.0 8.0 0.00 0.00 0.00 25 1011.4
20260504011825 63 311 2.0 9.0 0.00 0.00 0.00 25 1011.4
20260504011328 63 295 2.0 13.0 0.00 0.00 0.00 24 1011.5
20260504010826 63 313 2.0 13.0 0.00 0.00 0.00 24 1011.5
20260504010327 63 280 1.0 12.0 0.00 0.00 0.00 25 1011.5
20260504005315 63 298 2.0 9.0 0.00 0.00 0.00 26 1011.5
20260504004809 63 304 1.0 14.0 0.00 0.00 0.00 25 1011.4
20260504003251 64 19 0.0 0.0 0.00 0.00 0.00 24 1011.2
20260504002745 64 323 0.0 0.0 0.00 0.00 0.00 24 1011.1
20260504002240 65 287 0.0 0.0 0.00 0.00 0.00 23 1011.1
20260504001733 65 286 0.0 0.0 0.00 0.00 0.00 21 1011.1
20260504001228 66 306 0.0 0.0 0.00 0.00 0.00 21 1011.1
20260504000721 66 286 0.0 0.0 0.00 0.00 0.00 20 1011.1
20260504000215 66 39 0.0 0.0 0.00 0.00 0.00 20 1011.0
20260503235715 67 44 0.0 3.0 0.00 0.00 0.00 20 1011.1
20260503234215 67 46 0.0 2.0 0.00 0.00 0.00 19 1011.4
20260503233715 67 341 1.0 11.0 0.00 0.00 0.00 19 1011.2
20260503233215 67 281 1.0 11.0 0.00 0.00 0.00 17 1011.4
20260503232715 67 283 1.0 8.0 0.00 0.00 0.00 16 1011.2
20260503231713 68 255 1.0 6.0 0.00 0.00 0.00 16 1011.1
20260503231213 68 273 1.0 12.0 0.00 0.00 0.00 16 1011.1
20260503225711 69 286 1.0 11.0 0.00 0.00 0.00 16 1011.1
20260503225210 69 277 0.0 6.0 0.00 0.00 0.00 16 1011.1
20260503224705 69 260 0.0 6.0 0.00 0.00 0.00 16 1011.1
20260503224210 69 281 0.0 2.0 0.00 0.00 0.00 16 1011.1
20260503223710 69 281 0.0 4.0 0.00 0.00 0.00 18 1011.2
20260503223204 69 304 1.0 4.0 0.00 0.00 0.00 15 1011.2
20260503222658 70 270 1.0 8.0 0.00 0.00 0.00 16 1011.2
20260503222153 71 271 1.0 9.0 0.00 0.00 0.00 16 1011.2
20260503221647 71 34 2.0 17.0 0.00 0.00 0.00 16 1011.4
20260503221141 71 14 2.0 17.0 0.00 0.00 0.00 17 1011.5
20260503220640 71 194 1.0 13.0 0.00 0.00 0.00 16 1011.1
20260503220140 70 319 1.0 10.0 0.00 0.00 0.00 18 1011.6
20260503215641 70 292 2.0 10.0 0.00 0.00 0.00 17 1011.6
20260503215140 69 196 1.0 8.0 0.00 0.00 0.00 17 1011.7
20260503214638 69 315 1.0 7.0 0.00 0.00 0.00 16 1012.0
20260503214137 69 244 1.0 7.0 0.00 0.00 0.00 18 1012.0
20260503213637 69 158 1.0 7.0 0.00 0.00 0.00 16 1012.0
20260503212634 69 200 0.0 2.0 0.00 0.00 0.00 16 1012.1
20260503212134 69 167 0.0 3.0 0.00 0.00 0.00 15 1012.2
20260503211635 69 297 0.0 3.0 0.00 0.00 0.00 17 1012.2
20260503211131 69 258 1.0 7.0 0.00 0.00 0.00 15 1012.3
20260503210631 70 262 2.0 11.0 0.00 0.00 0.00 15 1012.5
20260503205630 70 280 3.0 13.0 0.00 0.00 0.00 16 1012.6
20260503205129 70 132 3.0 13.0 0.00 0.00 0.00 16 1012.6
20260503204129 69 133 2.0 9.0 0.00 0.00 0.00 15 1012.8
20260503203630 69 175 2.0 9.0 0.00 0.00 0.00 17 1012.9
20260503203132 69 130 2.0 10.0 0.00 0.00 0.00 17 1013.1
20260503202626 69 134 2.0 10.0 0.00 0.00 0.00 16 1013.1
20260503201626 67 101 1.0 8.0 0.00 0.00 0.00 17 1013.2
20260503201127 68 143 2.0 11.0 0.00 0.00 0.00 16 1013.3
20260503200625 67 251 2.0 11.0 0.00 0.00 0.00 16 1013.3
20260503200125 68 278 2.0 11.0 0.00 0.00 0.00 15 1013.4
20260503195125 68 263 2.0 10.0 0.00 0.00 0.00 17 1013.6
20260503194627 68 254 1.0 9.0 0.00 0.00 0.00 17 1013.6
20260503194124 68 290 0.0 6.0 0.00 0.00 0.00 14 1013.6
20260503193124 68 304 1.0 4.0 0.00 0.00 0.00 16 1013.7
20260503192621 68 181 1.0 4.0 0.00 0.00 0.00 16 1013.9
20260503192121 68 78 1.0 6.0 0.00 0.00 0.00 16 1013.9